Yankton, SD

10:33 AM CST on December 08, 2019 (GMT -0600)
Gurney Municipal

Weather History for KYKN - November, 2019

Change the Weather History Date:

Tuesday, November 12, 2019

  Actual Average Record
Temperature  
Mean Temperature 16 °F -  
Max Temperature 30 °F 43 °F 70 °F (1967)
Min Temperature 1 °F 22 °F -8 °F (1986)
Degree Days  
Heating Degree Days 50    
Moisture  
Dew Point 10 °F    
Average Humidity 72    
Maximum Humidity 87    
Minimum Humidity 60    
Precipitation  
Precipitation 0.00 in - - ()
Sea Level Pressure  
Sea Level Pressure 30.34 in    
Wind  
Wind Speed 10 mph (SSE)    
Max Wind Speed 28 mph    
Max Gust Speed 34 mph    
Visibility 10 miles    
Events      
Averages and records for this station are not official NWS values.
T = Trace of Precipitation, MM = Missing Value Source: NWS Daily Summary

Daily Weather History Graph

Daily Weather History Graph

Search for Another Location

Airport or City:

Astronomy

Nov. 12, 2019 Rise Set
Actual Time 7:17 AM CST 5:09 PM CST
Civil Twilight 6:47 AM CST 5:39 PM CST
Nautical Twilight 6:13 AM CST 6:13 PM CST
Astronomical Twilight 5:39 AM CST 6:46 PM CST
Moon 5:37 PM CST (11/12) 7:09 AM CST (11/12)
Length of Visible Light 10h 52m
Length of Day
9h 51m
Full, 100% of the Moon is Illuminated
Nov 12
Full
Nov 19
Last Quarter
Nov 26
New
Dec 4
First Quarter
Dec 11
Full

Hourly Weather History & Observations

Time (CST) Temp. Windchill Dew Point Humidity Pressure Visibility Wind Dir Wind Speed Gust Speed Precip Events Conditions
12:56 AM 3.0 °F -6.4 °F -0.0 °F 87% 30.76 in 10.0 mi SSW 4.6 mph - N/A   Clear
1:56 AM 3.9 °F -5.3 °F -0.0 °F 84% 30.74 in 10.0 mi SSE 4.6 mph - N/A   Clear
2:56 AM 3.0 °F -6.4 °F -0.9 °F 84% 30.73 in 10.0 mi South 4.6 mph - N/A   Clear
3:56 AM 1.9 °F -9.2 °F -2.0 °F 83% 30.71 in 10.0 mi SSE 5.8 mph - N/A   Clear
4:56 AM 1.0 °F -6.7 °F -2.0 °F 87% 30.67 in 10.0 mi SE 3.5 mph - N/A   Clear
5:56 AM 1.0 °F -11.7 °F -2.0 °F 87% 30.63 in 10.0 mi SE 6.9 mph - N/A   Clear
6:56 AM 1.0 °F -8.7 °F -2.0 °F 87% 30.60 in 10.0 mi SE 4.6 mph - N/A   Clear
7:56 AM 6.1 °F -8.7 °F 1.9 °F 83% 30.58 in 10.0 mi SSE 10.4 mph - N/A   Clear
8:56 AM 10.9 °F -2.6 °F 5.0 °F 77% 30.54 in 10.0 mi SSE 10.4 mph - N/A   Clear
9:56 AM 17.1 °F 2.5 °F 8.1 °F 68% 30.48 in 10.0 mi South 15.0 mph 26.5 mph N/A   Clear
10:56 AM 19.9 °F 3.2 °F 9.0 °F 62% 30.41 in 10.0 mi South 23.0 mph 28.8 mph N/A   Clear
11:56 AM 23.0 °F 8.0 °F 10.9 °F 60% 30.35 in 10.0 mi South 20.7 mph 27.6 mph N/A   Clear
12:56 PM 25.0 °F 10.6 °F 14.0 °F 63% 30.28 in 10.0 mi SSE 20.7 mph 28.8 mph N/A   Clear
1:56 PM 27.0 °F 11.6 °F 16.0 °F 63% 30.20 in 10.0 mi SSE 26.5 mph 34.5 mph N/A   Clear
2:56 PM 28.9 °F 14.0 °F 18.0 °F 64% 30.16 in 10.0 mi South 27.6 mph 34.5 mph N/A   Clear
3:56 PM 30.0 °F 18.7 °F 19.0 °F 64% 30.16 in 10.0 mi South 16.1 mph 32.2 mph N/A   Clear
4:56 PM 28.9 °F 16.9 °F 19.0 °F 67% 30.13 in 10.0 mi South 17.3 mph - N/A   Clear
5:56 PM 28.9 °F 17.3 °F 19.9 °F 69% 30.09 in 10.0 mi South 16.1 mph 21.9 mph N/A   Clear
6:56 PM 28.9 °F 17.7 °F 19.9 °F 69% 30.08 in 10.0 mi South 15.0 mph 23.0 mph N/A   Clear
7:56 PM 28.9 °F 17.7 °F 19.0 °F 67% 30.04 in 10.0 mi South 15.0 mph 23.0 mph N/A   Clear
8:56 PM 28.9 °F 18.2 °F 19.0 °F 67% 30.01 in 10.0 mi South 13.8 mph - N/A   Clear
9:56 PM 30.0 °F 21.1 °F 18.0 °F 61% 29.99 in 10.0 mi South 10.4 mph - N/A   Clear
10:56 PM 30.0 °F 22.4 °F 18.0 °F 61% 29.96 in 10.0 mi South 8.1 mph - N/A   Clear
11:56 PM 30.0 °F 24.1 °F 19.0 °F 64% 29.94 in 10.0 mi South 5.8 mph - N/A   Overcast